HODOYOSHI-3

Last updated on Mon Dec 08 2025 00:02:31 GMT+0000 (Coordinated Universal Time)

1 40015U 14033F 25341.02907618 .00002965 00000+0 35257-3 0 9995 2 40015 97.6196 147.1127 0031826 267.4936 92.2635 14.84776118619101
UTC large
Height (km)
Speed (km/s)
/
Latitude / Longitude
Inclination (degrees)
Orbital Period (minutes)
Azimuth
Elevation
Range (km)
Doppler Factor

Next 0 passes for location: London (51.5072 / 0.1276)

Sorry there are no passes over London.